| time (UTC) | temp F | wind direction | speed MPH | gust MPH | rain 1hr in | rain 24hr in | rain mn in | humidity % | barometer mb |
| 20260507114553 | 47 | 323 | 3.0 | 5.0 | 0.00 | 0.72 | 0.72 | 94 | 1006.6 |
| 20260507113050 | 47 | 292 | 0.0 | 0.0 | 0.00 | 0.72 | 0.72 | 97 | 1006.6 |
| 20260507111557 | 47 | 293 | 0.0 | 1.0 | 0.00 | 0.72 | 0.72 | 98 | 1007.0 |
| 20260507110043 | 47 | 293 | 0.0 | 0.0 | 0.00 | 0.72 | 0.72 | 98 | 1006.7 |
| 20260507104541 | 0 | 0.0 | 0.0 | 0.00 | 0.72 | 0.72 | 1007.1 | ||
| 20260507103037 | 0 | 0.0 | 0.0 | 0.00 | 0.72 | 0.72 | 1007.2 | ||
| 20260507101532 | 0 | 0.0 | 0.0 | 0.00 | 0.72 | 0.72 | 1006.6 | ||
| 20260507100025 | 0 | 0.0 | 0.0 | 0.01 | 0.72 | 0.72 | 1006.1 | ||
| 20260507094524 | 0 | 0.0 | 0.0 | 0.01 | 0.72 | 0.72 | 1006.2 | ||
| 20260507093017 | 0 | 0.0 | 0.0 | 0.01 | 0.72 | 0.72 | 1005.7 | ||
| 20260507091513 | 0 | 314 | 2.0 | 9.0 | 0.01 | 0.72 | 0.72 | 1006.3 | |
| 20260507090113 | 48 | 314 | 3.0 | 10.0 | 0.00 | 0.71 | 0.71 | 96 | 1006.2 |
| 20260507084601 | 48 | 307 | 3.0 | 7.0 | 0.00 | 0.71 | 0.71 | 96 | 1006.3 |
| 20260507083057 | 48 | 323 | 3.0 | 7.0 | 0.00 | 0.71 | 0.71 | 97 | 1005.8 |
| 20260507081555 | 49 | 305 | 4.0 | 9.0 | 0.00 | 0.71 | 0.71 | 97 | 1005.9 |
| 20260507080054 | 49 | 279 | 5.0 | 10.0 | 0.00 | 0.71 | 0.71 | 98 | 1005.9 |
| 20260507074558 | 49 | 311 | 4.0 | 10.0 | 0.00 | 0.71 | 0.71 | 99 | 1005.9 |
| 20260507073052 | 49 | 300 | 5.0 | 7.0 | 0.00 | 0.71 | 0.71 | 99 | 1005.6 |
| 20260507071552 | 49 | 312 | 4.0 | 6.0 | 0.00 | 0.71 | 0.71 | 100 | 1005.0 |
| 20260507070055 | 49 | 304 | 3.0 | 6.0 | 0.00 | 0.71 | 0.71 | 100 | 1004.7 |
| 20260507064607 | 49 | 298 | 4.0 | 6.0 | 0.01 | 0.71 | 0.71 | 100 | 1004.8 |
| 20260507063056 | 49 | 297 | 5.0 | 10.0 | 0.01 | 0.71 | 0.71 | 99 | 1004.7 |
| 20260507061553 | 50 | 311 | 8.0 | 13.0 | 0.02 | 0.71 | 0.71 | 100 | 1004.7 |
| 20260507060059 | 50 | 307 | 5.0 | 8.0 | 0.02 | 0.71 | 0.71 | 100 | 1004.6 |
| 20260507054607 | 50 | 321 | 6.0 | 9.0 | 0.03 | 0.70 | 0.70 | 100 | 1004.6 |
| 20260507053056 | 51 | 300 | 6.0 | 10.0 | 0.10 | 0.70 | 0.70 | 100 | 1004.6 |
| 20260507051556 | 50 | 288 | 5.0 | 6.0 | 0.16 | 0.69 | 0.69 | 100 | 1004.6 |
| 20260507050054 | 50 | 316 | 5.0 | 8.0 | 0.17 | 0.69 | 0.69 | 100 | 1004.6 |
| 20260507044554 | 51 | 302 | 8.0 | 18.0 | 0.15 | 0.67 | 0.67 | 100 | 1004.7 |
| 20260507043058 | 51 | 274 | 0.0 | 9.0 | 0.08 | 0.60 | 0.60 | 100 | 1004.2 |
| 20260507041600 | 50 | 154 | 2.0 | 8.0 | 0.01 | 0.53 | 0.53 | 100 | 1004.1 |
| 20260507040054 | 50 | 141 | 4.0 | 8.0 | 0.00 | 0.52 | 0.52 | 100 | 1004.3 |
| 20260507034549 | 50 | 127 | 6.0 | 12.0 | 0.00 | 0.52 | 0.52 | 100 | 1004.2 |
| 20260507033045 | 49 | 141 | 6.0 | 11.0 | 0.00 | 0.52 | 0.52 | 100 | 1004.4 |
| 20260507031543 | 49 | 150 | 2.0 | 6.0 | 0.00 | 0.52 | 0.52 | 100 | 1004.5 |
| 20260507030042 | 49 | 179 | 3.0 | 9.0 | 0.00 | 0.52 | 0.52 | 100 | 1004.4 |
| 20260507024540 | 49 | 212 | 5.0 | 13.0 | 0.00 | 0.52 | 0.52 | 100 | 1004.6 |
| 20260507023008 | 49 | 219 | 6.0 | 16.0 | 0.00 | 0.52 | 0.52 | 100 | 1004.8 |
| 20260507021506 | 50 | 140 | 6.0 | 17.0 | 0.01 | 0.52 | 0.52 | 100 | 1004.9 |
| 20260507020002 | 50 | 211 | 6.0 | 18.0 | 0.03 | 0.52 | 0.52 | 100 | 1005.1 |
| 20260507014609 | 50 | 255 | 8.0 | 18.0 | 0.04 | 0.52 | 0.52 | 100 | 1005.3 |
| 20260507013115 | 50 | 137 | 8.0 | 19.0 | 0.05 | 0.52 | 0.52 | 100 | 1005.5 |
| 20260507011559 | 50 | 165 | 9.0 | 17.0 | 0.05 | 0.51 | 0.51 | 100 | 1005.5 |
| 20260507010033 | 50 | 148 | 9.0 | 16.0 | 0.04 | 0.49 | 0.49 | 100 | 1005.5 |
| 20260507004528 | 50 | 158 | 9.0 | 21.0 | 0.03 | 0.48 | 0.48 | 100 | 1005.7 |
| 20260507003056 | 50 | 168 | 12.0 | 20.0 | 0.03 | 0.47 | 0.47 | 100 | 1005.8 |
| 20260507001612 | 50 | 143 | 10.0 | 28.0 | 0.04 | 0.46 | 0.46 | 100 | 1005.6 |
| 20260507000049 | 50 | 150 | 10.0 | 18.0 | 0.04 | 0.45 | 0.45 | 100 | 1005.7 |
| 20260506234546 | 51 | 153 | 9.0 | 18.0 | 0.09 | 0.45 | 0.45 | 100 | 1006.0 |
| 20260506233047 | 51 | 143 | 12.0 | 26.0 | 0.12 | 0.44 | 0.44 | 100 | 1006.3 |
| 20260506231547 | 52 | 150 | 8.0 | 21.0 | 0.15 | 0.42 | 0.42 | 99 | 1006.3 |
| 20260506230040 | 52 | 145 | 11.0 | 20.0 | 0.18 | 0.40 | 0.40 | 99 | 1006.3 |
| 20260506224537 | 52 | 127 | 11.0 | 23.0 | 0.18 | 0.36 | 0.36 | 99 | 1006.5 |
| 20260506223036 | 52 | 143 | 13.0 | 23.0 | 0.18 | 0.31 | 0.31 | 99 | 1006.8 |
| 20260506221535 | 52 | 163 | 12.0 | 24.0 | 0.17 | 0.27 | 0.27 | 99 | 1006.7 |
| 20260506220029 | 52 | 203 | 11.0 | 23.0 | 0.13 | 0.22 | 0.22 | 98 | 1007.1 |
| 20260506214524 | 52 | 203 | 11.0 | 25.0 | 0.11 | 0.18 | 0.18 | 98 | 1007.2 |
| 20260506213022 | 52 | 136 | 9.0 | 19.0 | 0.05 | 0.12 | 0.12 | 97 | 1007.4 |
| 20260506211520 | 53 | 150 | 8.0 | 20.0 | 0.03 | 0.09 | 0.09 | 97 | 1007.5 |
| 20260506210018 | 53 | 154 | 7.0 | 24.0 | 0.05 | 0.09 | 0.09 | 97 | 1007.3 |
| 20260506204517 | 52 | 141 | 7.0 | 12.0 | 0.05 | 0.07 | 0.07 | 97 | 1007.4 |
| 20260506203018 | 52 | 144 | 6.0 | 13.0 | 0.07 | 0.07 | 0.07 | 97 | 1007.8 |
| 20260506201514 | 52 | 155 | 9.0 | 19.0 | 0.05 | 0.05 | 0.05 | 96 | 1007.7 |
| 20260506200019 | 52 | 121 | 9.0 | 27.0 | 0.04 | 0.04 | 0.04 | 96 | 1007.7 |
| 20260506194511 | 52 | 142 | 6.0 | 14.0 | 0.02 | 0.02 | 0.02 | 95 | 1007.8 |
| 20260506193009 | 53 | 154 | 9.0 | 17.0 | 0.00 | 0.00 | 0.00 | 93 | 1007.8 |
| 20260506193007 | 53 | 129 | 9.0 | 17.0 | 0.00 | 0.00 | 0.00 | 93 | 1007.8 |
| 20260506191507 | 54 | 138 | 10.0 | 22.0 | 0.00 | 0.00 | 0.00 | 92 | 1007.5 |
| 20260506190006 | 54 | 154 | 12.0 | 22.0 | 0.00 | 0.00 | 0.00 | 92 | 1007.3 |
| 20260506184531 | 53 | 151 | 10.0 | 19.0 | 0.00 | 0.00 | 0.00 | 93 | 1007.7 |
| 20260506183031 | 53 | 171 | 10.0 | 18.0 | 0.00 | 0.00 | 0.00 | 93 | 1007.9 |
| 20260506181531 | 53 | 231 | 8.0 | 20.0 | 0.00 | 0.00 | 0.00 | 93 | 1007.9 |
| 20260506180033 | 52 | 181 | 10.0 | 20.0 | 0.00 | 0.00 | 0.00 | 94 | 1008.2 |
| 20260506174527 | 52 | 145 | 9.0 | 15.0 | 0.00 | 0.00 | 0.00 | 94 | 1008.2 |
| 20260506173020 | 52 | 136 | 8.0 | 15.0 | 0.00 | 0.00 | 0.00 | 94 | 1008.4 |
| 20260506171528 | 52 | 144 | 6.0 | 15.0 | 0.00 | 0.00 | 0.00 | 94 | 1008.5 |
| 20260506170013 | 52 | 141 | 8.0 | 18.0 | 0.00 | 0.00 | 0.00 | 94 | 1009.0 |
| 20260506164509 | 52 | 225 | 8.0 | 17.0 | 0.00 | 0.00 | 0.00 | 93 | 1009.4 |
| 20260506163017 | 53 | 166 | 7.0 | 19.0 | 0.00 | 0.00 | 0.00 | 93 | 1009.4 |
| 20260506161510 | 52 | 140 | 7.0 | 16.0 | 0.00 | 0.00 | 0.00 | 94 | 1009.8 |
| 20260506160008 | 52 | 156 | 7.0 | 15.0 | 0.00 | 0.00 | 0.00 | 93 | 1009.9 |
| 20260506154503 | 52 | 173 | 7.0 | 18.0 | 0.00 | 0.00 | 0.00 | 94 | 1010.5 |
| 20260506153003 | 53 | 145 | 13.0 | 20.0 | 0.00 | 0.00 | 0.00 | 93 | 1010.0 |
| 20260506151559 | 53 | 189 | 12.0 | 21.0 | 0.00 | 0.00 | 0.00 | 94 | 1009.9 |
| 20260506150101 | 53 | 143 | 9.0 | 22.0 | 0.00 | 0.00 | 0.00 | 94 | 1009.7 |
| 20260506144554 | 53 | 109 | 8.0 | 17.0 | 0.00 | 0.00 | 0.00 | 94 | 1009.6 |
| 20260506143051 | 52 | 224 | 9.0 | 19.0 | 0.00 | 0.00 | 0.00 | 94 | 1010.0 |
| 20260506141550 | 52 | 217 | 4.0 | 14.0 | 0.00 | 0.00 | 0.00 | 94 | 1010.4 |
| 20260506140048 | 52 | 207 | 8.0 | 17.0 | 0.00 | 0.00 | 0.00 | 95 | 1010.4 |
| 20260506134610 | 52 | 160 | 6.0 | 18.0 | 0.00 | 0.00 | 0.00 | 95 | 1010.3 |
| 20260506133043 | 52 | 230 | 6.0 | 13.0 | 0.00 | 0.00 | 0.00 | 95 | 1010.3 |
| 20260506131555 | 52 | 169 | 5.0 | 14.0 | 0.00 | 0.00 | 0.00 | 95 | 1010.1 |
| 20260506130037 | 52 | 184 | 5.0 | 14.0 | 0.00 | 0.00 | 0.00 | 95 | 1010.0 |
| 20260506124534 | 51 | 153 | 9.0 | 15.0 | 0.00 | 0.00 | 0.00 | 95 | 1010.1 |
| 20260506123033 | 51 | 207 | 5.0 | 11.0 | 0.00 | 0.00 | 0.00 | 95 | 1010.2 |
| 20260506121528 | 51 | 206 | 6.0 | 14.0 | 0.00 | 0.00 | 0.00 | 95 | 1010.1 |
| 20260506120028 | 51 | 148 | 5.0 | 12.0 | 0.00 | 0.00 | 0.00 | 95 | 1010.4 |